Flag for Austria Weather past 2 weeks in Telfs, Tyrol, Austria

32 °F

Broken clouds.

Feels Like: 32 °F
Forecast: 15 / 37 °F
Wind: 2 mph from North

Location: Innsbruck-Flughafen

Current Time: Nov 27, 2015 at 9:21:35 AM

Latest Report: Nov 27, 2015 at 8:50 AM

Visibility: 4 mi

Pressure: 30.07 "Hg (27.79 "Hg at 630m altitude)

Humidity: 93%

Dew point: 30 °F

Location of TelfsLocation

Historic Weather in Telfs — Graph


Telfs temperature yesterday

Maximum temperature yesterday: 36 °F (at 2:20 PM)
Minimum temperature yesterday: 30 °F (at 12:20 AM)
Average temperature yesterday: 33 °F

Past Weeks' High & Low Weather Summary

High70 °F (Nov 18, 1:20 PM)100% (Nov 13, 3:50 AM)30.45 "Hg (Nov 13, 3:50 AM)
Low21 °F (Nov 24, 6:20 AM)25% (Nov 18, 1:20 PM)29.36 "Hg (Nov 21, 1:20 PM)
Average40 °F79%30.02 "Hg
* Reported Nov 12 8:20 AM — Nov 27 8:20 AM, Telfs, Weather by CustomWeather, © 2015

Note: Actual official high and low records may vary slightly from our data, if they occured in-between our weather recording intervals... More about our weather records


Telfs weather history for previous 24 hours

Time TempWeatherWind HumidityBarometerVisibility
8:20 AM
Fri, Nov 27
32 °FBroken clouds.2 mph93%30.07 "Hg4 mi
7:50 AM30 °FBroken clouds.2 mph100%30.07 "Hg4 mi
7:20 AM30 °FPartly cloudy.1 mph100%30.07 "Hg4 mi
6:50 AM30 °FPartly cloudy.2 mph100%30.07 "Hg4 mi
6:20 AM30 °FPartly cloudy.1 mph100%30.07 "Hg4 mi
5:50 AM32 °FLight snow. Ice fog.3 mph93%30.07 "Hg3 mi
4:50 AM32 °FPassing clouds.1 mph93%30.07 "Hg4 mi
4:20 AM32 °FPassing clouds.2 mph100%30.07 "Hg4 mi
3:50 AM34 °FPassing clouds.3 mph93%30.07 "Hg5 mi
3:20 AM34 °FPassing clouds.2 mph93%30.09 "Hg4 mi
2:50 AM34 °FPassing clouds.1 mph93%30.09 "Hg4 mi
2:20 AM34 °FPassing clouds.1 mph93%30.09 "Hg4 mi
1:50 AM34 °FFog.1 mph93%30.09 "Hg3 mi
1:20 AM34 °FOvercast.No wind93%30.09 "Hg4 mi
12:50 AM34 °FPartly cloudy.2 mph93%30.09 "Hg4 mi
12:20 AM34 °FPartly cloudy.2 mph93%30.09 "Hg4 mi
11:50 PM
Thu, Nov 26
34 °FPassing clouds.2 mph93%30.09 "Hg4 mi
10:50 PM34 °FPartly cloudy.1 mph93%30.09 "Hg4 mi
10:20 PM34 °FPartly cloudy.1 mph93%30.09 "Hg4 mi
9:50 PM34 °FLight snow. Partly cloudy.No wind93%30.07 "Hg4 mi
9:20 PM34 °FPartly cloudy.2 mph93%30.07 "Hg5 mi
8:50 PM34 °FPartly cloudy.2 mph93%30.07 "Hg5 mi
8:20 PM34 °FPartly cloudy.No wind93%30.07 "Hg5 mi
7:50 PM34 °FLight rain. Partly cloudy.1 mph100%30.07 "HgN/A
7:20 PM34 °FLight snow. Partly cloudy.1 mph93%30.04 "HgN/A
6:50 PM34 °FLight snow. Partly cloudy.2 mph93%30.04 "HgN/A
6:20 PM34 °FLight snow. Partly cloudy.1 mph93%30.04 "HgN/A
5:50 PM34 °FLight snow. Partly cloudy.2 mph93%30.01 "HgN/A
5:20 PM36 °FPartly cloudy.2 mph87%30.01 "HgN/A
4:50 PM36 °FPartly cloudy.2 mph87%29.98 "Hg6 mi
4:20 PM36 °FLight rain. Broken clouds.2 mph93%29.98 "Hg4 mi
3:50 PM36 °FBroken clouds.1 mph87%29.95 "Hg4 mi
3:20 PM36 °FBroken clouds.1 mph93%29.95 "Hg6 mi
2:50 PM36 °FLight snow. Broken clouds.5 mph87%29.95 "Hg4 mi
2:20 PM36 °FLight snow. Broken clouds.2 mph93%29.92 "Hg4 mi
1:50 PM34 °FLight snow. Broken clouds.1 mph93%29.92 "Hg4 mi
1:20 PM34 °FLight snow. Broken clouds.1 mph93%29.92 "Hg3 mi
12:50 PM34 °FLight snow. Broken clouds.2 mph93%29.89 "Hg4 mi
12:20 PM34 °FLight snow. Fog.1 mph93%29.89 "Hg3 mi
11:50 AM32 °FLight snow. Ice fog.2 mph100%29.89 "Hg1 mi
11:20 AM32 °FLight snow. Ice fog.1 mph100%29.89 "Hg1 mi
10:50 AM32 °FSnow. More clouds than sun.2 mph100%29.89 "Hg1 mi
10:20 AM32 °FSnow. Broken clouds.6 mph93%29.86 "Hg1 mi
9:50 AM32 °FLight snow. Broken clouds.8 mph93%29.86 "Hg5 mi
9:20 AM32 °FLight snow. Broken clouds.3 mph93%29.83 "Hg4 mi
Weather by CustomWeather, © 2015

See weather overviewHow to use our weather pages